Lid_Strength_Index
11 9 10 10 10 10 11 11 14 14 14 11 10 9 8 7 7 7 7 6 5 5 5 4 4 3 3 3 3 3 3 3 3 3 3 3 4 3 3 3 3 3 5 5
12 9 10 11 12 11 11 11 12 12 13 9 8 8 8 7 7 7 7 6 5 5 5 4 4 4 4 4 3 3 3 3 3 3 4 4 4 3 3 3 4 4 6 6
15 10 11 15 13 12 12 11 11 15 12 9 9 9 8 8 7 7 6 5 5 5 5 5 4 4 4 3 4 4 5 4 4 4 4 3 2 2 2 3 3 5 7 8
14 12 17 13 9 9 11 11 10 10 9 8 8 7 7 6 7 6 6 5 5 4 4 4 4 4 4 3 4 5 5 4 4 3 2 2 2 2 3 4 4 5 7 7
14 15 14 12 10 11 12 13 9 10 9 8 7 7 7 5 5 5 5 4 4 3 3 4 4 4 4 5 5 5 5 4 4 3 3 3 3 4 5 5 4 4 5 5
14 15 17 13 9 7 8 15 8 8 9 9 8 12 9 5 4 4 4 4 4 3 3 3 3 4 4 4 4 4 4 3 2 3 3 3 5 6 5 4 4 3 4 5
15 16 14 10 8 7 15 14 8 7 8 8 9 8 6 4 4 4 4 3 3 3 3 3 2 3 4 4 5 4 3 3 3 3 4 4 5 6 6 6 5 4 4 5
14 17 17 8 8 12 10 8 7 7 7 7 6 6 5 5 5 4 4 3 3 3 3 2 2 2 3 3 3 3 3 3 4 4 3 5 6 6 5 5 5 5 6 6
13 14 9 8 8 7 6 7 7 7 6 6 6 7 5 5 4 4 4 3 3 3 3 2 2 3 4 4 3 2 3 3 3 4 5 6 5 5 5 5 5 5 6 7
11 11 10 8 7 6 6 6 6 5 5 6 6 6 6 5 5 4 4 3 3 3 4 4 3 3 3 3 2 3 4 5 4 4 4 2 3 4 5 5 6 6 6 7
11 9 8 7 6 6 5 5 5 5 6 5 6 7 6 5 5 4 3 3 3 4 4 3 3 3 3 3 4 4 4 4 3 3 5 5 6 7 7 8 6 5 6 7
12 8 9 8 6 5 6 5 5 5 5 4 4 5 5 5 4 4 4 4 4 4 4 4 4 4 3 3 2 3 3 3 4 3 4 6 6 7 8 8 8 9 8 8
8 6 6 6 5 4 5 5 4 4 4 5 4 4 4 4 4 4 4 3 3 3 3 3 3 3 2 1 2 3 4 4 4 3 4 4 6 7 8 7 7 8 9 8
5 5 7 5 6 4 4 4 4 4 4 3 3 3 3 3 3 3 4 3 2 3 2 2 2 2 2 2 2 4 4 5 3 3 2 2 4 6 7 8 8 7 7 8
5 5 5 5 4 4 4 4 4 5 4 4 3 4 3 4 4 3 3 3 3 2 2 3 3 3 1 3 4 4 4 3 4 5 5 5 4 4 4 4 6 6 6 6
5 5 5 5 5 5 5 4 5 5 4 4 4 4 4 3 3 3 3 2 3 3 3 3 3 2 2 3 4 5 5 6 6 5 4 3 3 5 5 5 6 7 7 7
6 7 6 6 5 6 6 5 5 5 5 4 4 3 3 3 3 3 2 3 3 3 3 2 2 2 3 3 2 3 2 3 4 3 3 3 4 5 5 4 6 7 7 9
5 5 5 6 7 6 5 5 5 4 4 3 3 4 4 3 4 3 3 4 4 3 3 3 3 2 3 4 5 3 3 3 2 3 5 5 5 5 6 7 7 7 8 8
4 5 6 6 5 5 6 6 5 4 3 3 3 4 3 3 4 4 3 3 4 6 5 5 5 5 6 6 6 5 3 4 4 5 5 6 6 7 7 7 7 7 7 7
6 6 5 5 5 5 6 4 4 4 3 4 4 4 5 4 4 3 3 4 4 5 5 6 7 7 7 7 6 3 3 4 5 5 6 6 7 7 8 8 8 8 8 9
6 5 5 5 5 5 4 4 4 4 4 4 5 5 5 3 3 3 5 6 6 7 6 7 8 9 8 7 5 5 5 5 6 7 7 7 8 8 8 8 8 9 9 10
6 5 5 5 4 5 4 4 4 4 5 5 5 5 4 3 3 3 5 6 7 8 6 8 9 11 9 8 7 7 6 6 6 6 7 7 7 8 8 9 9 9 10 10
5 6 5 4 5 5 5 5 5 5 5 5 4 4 3 4 4 7 7 6 7 7 7 8 11 12 11 8 7 7 7 7 7 7 8 8 8 9 9 9 9 9 10 10
5 4 5 4 4 5 6 6 5 5 4 4 3 3 3 5 7 7 7 8 9 7 7 8 10 12 10 8 8 8 8 8 8 8 9 10 9 10 9 9 9 10 10 10
5 4 4 5 5 6 6 5 5 5 3 5 3 2 3 5 6 7 7 7 9 8 7 10 11 11 8 8 8 8 9 9 9 9 9 9 10 10 10 10 10 10 11 10
5 5 4 5 5 6 5 5 6 6 5 3 3 2 2 4 5 6 7 7 7 8 7 8 7 7 7 7 8 7 8 8 8 9 9 9 10 10 10 10 10 10 11 11
5 6 5 6 5 5 5 6 6 5 5 4 4 3 2 4 5 6 7 6 6 6 6 7 7 7 7 7 7 8 8 8 9 8 8 8 8 9 9 9 9 9 10 11